Weather observations for the past three days for
Bishop, Bishop Airport
Imperial (Metric)
Date Time (pdt) Wind (mph) Vis. (mi.) Weather Sky Cond. Temperature (ºF) Relative Humidity Wind Chill (°F) Heat Index (°F) Pressure Precipitation (in)
Air Dwpt 6 hour altimeter (in) sea level (mb) 1 hr 3 hr 6 hr
Max. Min.
20 17:56 Vrbl 3 8.00 Fair CLR 93.9 45 18% 90 30.02 1011.3
20 16:56 W 14 G 21 10.00 Fair CLR 98.1 42.1 105.1 93 15% 94 30.01 1010.5
20 15:56 S 12 G 20 10.00 Fair CLR 104 42.1 12% 99 30.02 1010.2
20 14:56 S 15 G 20 10.00 Fair CLR 104 43 12% 99 30.03 1010.8
20 13:56 SE 14 G 24 10.00 Fair CLR 104 43 12% 99 30.06 1011.6
20 12:56 SE 13 G 24 10.00 Fair CLR 100.9 45 15% 97 30.09 1012.6
20 11:56 S 3 10.00 Fair CLR 97 46.9 18% 93 30.11 1013.3
20 10:56 NE 5 10.00 Fair CLR 93.9 46 95 61 19% 90 30.13 1014.1
20 09:56 NW 5 10.00 Fair CLR 91.9 51.1 25% 89 30.15 1014.7
20 08:56 Vrbl 5 10.00 Fair CLR 84.9 50 30% 83 30.16 1015.2
20 07:56 NW 6 10.00 Fair CLR 78.1 50 37% 79 30.17 1015.6
20 06:56 NW 5 10.00 Fair CLR 71.1 48 44% 30.15 1015.3
20 05:56 N 3 10.00 Fair CLR 62.1 48 60% 30.14 1014.8
20 04:56 NW 8 10.00 Fair CLR 66 46.9 80.1 66 50% 30.13 1014.3
20 03:56 NW 3 10.00 Fair CLR 66.9 48 51% 30.13 1014.1
20 02:56 NW 6 10.00 Fair CLR 68 48.9 51% 30.13 1014.1
20 01:56 N 6 10.00 Fair CLR 69.1 48.9 49% 30.14 1014.4
20 00:56 Calm 10.00 Fair CLR 72 50 46% 30.14 1014.3
19 23:56 W 5 10.00 Fair CLR 77 51.1 40% 78 30.14 1014.4
19 22:56 N 6 10.00 Partly Cloudy SCT120 80.1 48.9 102 79 34% 79 30.14 1014.3
19 21:56 NW 5 10.00 Fair CLR 84 48 29% 82 30.14 1014.3
19 20:56 W 10 10.00 Fair CLR 87.1 46 24% 84 30.12 1013.7
19 19:56 W 5 10.00 Fair CLR 90 44.1 20% 86 30.08 1012.5
19 18:56 N 13 G 29 10.00 Fair CLR 93 45 19% 89 30.07 1012.7
19 17:56 NW 9 10.00 Partly Cloudy SCT120 100.9 44.1 14% 97 30.04 1011.4
19 16:56 Vrbl 6 10.00 Fair CLR 102 42.1 102.9 93.9 13% 97 30.03 1010.7
19 15:56 S 12 10.00 Fair CLR 102.9 44.1 13% 99 30.04 1010.8
19 14:56 S 9 10.00 Fair CLR 102 42.1 13% 97 30.06 1011.5
19 13:56 S 13 G 24 10.00 Fair CLR 100.9 44.1 14% 97 30.08 1012.3
19 12:56 S 14 G 23 10.00 Fair CLR 100.9 45 15% 97 30.1 1013.0
19 11:56 Calm 10.00 Fair CLR 97 48 19% 93 30.13 1014.0
19 10:56 Calm 10.00 Fair CLR 93.9 48.9 95 63 21% 91 30.15 1014.6
19 09:56 N 6 10.00 Fair CLR 89.1 50 26% 86 30.17 1015.5
19 08:56 W 5 10.00 Fair CLR 84 54 36% 83 30.18 1016.4
19 07:56 Vrbl 3 10.00 Fair CLR 78.1 54 43% 79 30.19 1016.7
19 06:56 N 3 10.00 Fair CLR 68 52 57% 30.18 1016.8
19 05:56 NW 3 10.00 Fair CLR 64.9 52 63% 30.17 1016.4
19 04:56 NW 6 10.00 Partly Cloudy SCT110 66.9 52 79 66.9 59% 30.16 1015.8
19 03:56 W 7 10.00 A Few Clouds FEW120 71.1 52 51% 30.15 1015.0
19 02:56 NW 6 10.00 A Few Clouds FEW110 69.1 52 55% 30.14 1014.8
19 01:56 NE 3 10.00 Mostly Cloudy BKN110 71.1 53.1 53% 30.14 1014.7
19 00:56 N 5 10.00 Fair CLR 70 50 49% 30.14 1015.0
18 23:56 NW 5 10.00 A Few Clouds FEW120 75.9 50 40% 78 30.14 1014.4
18 22:56 W 7 10.00 Partly Cloudy SCT120 79 48.9 93 78.1 35% 79 30.13 1014.4
18 21:56 NW 7 10.00 Fair CLR 80.1 48.9 34% 79 30.13 1014.5
18 20:56 N 6 10.00 Fair CLR 80.1 51.1 37% 80 30.11 1014.2
18 19:56 NW 8 10.00 Fair CLR 82.9 50 32% 81 30.11 1014.0
18 18:56 NW 10 10.00 Fair CLR 86 50 29% 84 30.09 1013.5
18 17:56 W 12 10.00 Fair CLR 89.1 51.1 27% 86 30.08 1013.0
18 16:56 NW 15 G 23 10.00 A Few Clouds FEW120 93 48 100.9 90 21% 90 30.07 1012.6
18 15:56 NE 5 10.00 Mostly Cloudy BKN120 93.9 46.9 20% 90 30.07 1012.4
18 14:56 W 6 10.00 Partly Cloudy SCT120 96.1 45 17% 92 30.06 1012.3
18 13:56 W 5 10.00 Fair CLR 99 45 16% 95 30.07 1012.0
18 12:56 W 14 G 21 10.00 Fair CLR 95 46.9 19% 91 30.1 1012.6
18 11:56 Vrbl 3 10.00 Fair CLR 96.1 42.1 15% 92 30.11 1012.8
18 10:56 NW 5 10.00 Fair CLR 90 39 90 69.1 17% 86 30.13 1013.9
18 09:56 Vrbl 3 10.00 Fair CLR 84.9 45 25% 82 30.15 1014.6
18 08:56 W 7 10.00 A Few Clouds FEW120 81 46 29% 80 30.14 1014.4
18 07:56 SE 8 10.00 Mostly Cloudy BKN120 75.9 41 29% 77 30.16 1015.2
18 06:56 N 5 10.00 A Few Clouds FEW120 75.9 42.1 30% 77 30.12 1013.5
18 05:56 NW 8 10.00 Partly Cloudy FEW075 FEW090 SCT110 73 39.9 30% 30.1 1013.0
18 04:56 W 6 10.00 Fair CLR 73 39 84.9 66.9 29% 30.1 1012.8
18 03:56 NW 7 10.00 Fair CLR 70 39 32% 30.08 1012.2
18 02:56 NW 7 10.00 Fair CLR 70 42.1 37% 30.07 1012.1
18 01:56 N 5 10.00 Fair CLR 73 43 34% 30.07 1011.8
18 00:56 W 7 10.00 Fair CLR 82.9 35.1 18% 80 30.06 1011.0
17 23:56 S 3 10.00 Fair CLR 82.9 35.1 18% 80 30.06 1011.2
17 22:56 SW 6 10.00 Fair CLR 84 39 102 82.9 20% 81 30.05 1011.2
17 21:56 S 7 10.00 Fair CLR 87.1 43 21% 84 30.04 1010.8
17 20:56 SE 9 10.00 Fair CLR 91 41 17% 87 30.02 1010.2
17 19:56 SE 10 10.00 Fair CLR 93.9 41 16% 90 29.99 1009.6
17 18:56 SE 15 10.00 Fair CLR 98.1 41 14% 94 29.98 1009.3
Date Time (pdt) Wind (mph) Vis. (mi.) Weather Sky Cond. Air Dwpt Max. Min. Relative Humidity Wind Chill (°F) Heat Index (°F) altimeter (in) sea level (mb) 1 hr 3 hr 6 hr
6 hour
Temperature (ºF) Pressure Precipitation (in)